Location: Nelson
(41.2830°S, 173.2830°E)
Time: 07:13:06
(UTC+12:00)

ISS - Pass Details

Date: 17 May 2025
Orbit: 415 x 416 km, 51.6° (Epoch: 16 June)

Event Time Altitude Azimuth Distance (km) Brightness Sun altitude
Exits shadow 06:32:43 - 305° (NW) 1,844 -0.9 -10.9°
Reaches altitude 10° 06:33:31 10° 305° (NW) 1,511 -1.3 -10.7°
Maximum altitude 06:36:55 85° 218° (SW) 434 -3.8 -10.1°
Drops below altitude 10° 06:40:22 10° 127° (SE) 1,530 -0.4 -9.5°
Sets 06:42:30 0° 126° (SE) 2,402 0.7 -9.1°
